Year,Month,Day,Hour,Minute,Value (Times are PST for insolation in W/m^2)
2012,03,28,00,00,0.00
2012,03,28,00,01,0.00
2012,03,28,00,02,0.00
2012,03,28,00,03,0.00
2012,03,28,00,04,0.00
2012,03,28,00,05,0.00
2012,03,28,00,06,0.00
2012,03,28,00,07,0.00
2012,03,28,00,08,0.00
2012,03,28,00,09,0.00
2012,03,28,00,10,0.00
2012,03,28,00,11,0.00
2012,03,28,00,12,0.00
2012,03,28,00,13,0.00
2012,03,28,00,14,0.00
2012,03,28,00,15,0.00
2012,03,28,00,16,0.00
2012,03,28,00,17,0.00
2012,03,28,00,18,0.00
2012,03,28,00,19,0.00
2012,03,28,00,20,0.00
2012,03,28,00,21,0.00
2012,03,28,00,22,0.00
2012,03,28,00,23,0.00
2012,03,28,00,24,0.00
2012,03,28,00,25,0.00
2012,03,28,00,26,0.00
2012,03,28,00,27,0.00
2012,03,28,00,28,0.00
2012,03,28,00,29,0.00
2012,03,28,00,30,0.00
2012,03,28,00,31,0.00
2012,03,28,00,32,0.00
2012,03,28,00,33,0.00
2012,03,28,00,34,0.00
2012,03,28,00,35,0.00
2012,03,28,00,36,0.00
2012,03,28,00,37,0.00
2012,03,28,00,38,0.00
2012,03,28,00,39,0.00
2012,03,28,00,40,0.00
2012,03,28,00,41,0.00
2012,03,28,00,42,0.00
2012,03,28,00,43,0.00
2012,03,28,00,44,0.00
2012,03,28,00,45,0.00
2012,03,28,00,46,0.00
2012,03,28,00,47,0.00
2012,03,28,00,48,0.00
2012,03,28,00,49,0.00
2012,03,28,00,50,0.00
2012,03,28,00,51,0.00
2012,03,28,00,52,0.00
2012,03,28,00,53,0.00
2012,03,28,00,54,0.00
2012,03,28,00,55,0.00
2012,03,28,00,56,0.00
2012,03,28,00,57,0.00
2012,03,28,00,58,0.00
2012,03,28,00,59,0.00
2012,03,28,01,00,0.00
2012,03,28,01,01,0.00
2012,03,28,01,02,0.00
2012,03,28,01,03,0.00
2012,03,28,01,04,0.00
2012,03,28,01,05,0.00
2012,03,28,01,06,0.00
2012,03,28,01,07,0.00
2012,03,28,01,08,0.00
2012,03,28,01,09,0.00
2012,03,28,01,10,0.00
2012,03,28,01,11,0.00
2012,03,28,01,12,0.00
2012,03,28,01,13,0.00
2012,03,28,01,14,0.00
2012,03,28,01,15,0.00
2012,03,28,01,16,0.00
2012,03,28,01,17,0.00
2012,03,28,01,18,0.00
2012,03,28,01,19,0.00
2012,03,28,01,20,0.00
2012,03,28,01,21,0.00
2012,03,28,01,22,0.00
2012,03,28,01,23,0.00
2012,03,28,01,24,0.00
2012,03,28,01,25,0.00
2012,03,28,01,26,0.00
2012,03,28,01,27,0.00
2012,03,28,01,28,0.00
2012,03,28,01,29,0.00
2012,03,28,01,30,0.00
2012,03,28,01,31,0.00
2012,03,28,01,32,0.00
2012,03,28,01,33,0.00
2012,03,28,01,34,0.00
2012,03,28,01,35,0.00
2012,03,28,01,36,0.00
2012,03,28,01,37,0.00
2012,03,28,01,38,0.00
2012,03,28,01,39,0.00
2012,03,28,01,40,0.00
2012,03,28,01,41,0.00
2012,03,28,01,42,0.00
2012,03,28,01,43,0.00
2012,03,28,01,44,0.00
2012,03,28,01,45,0.00
2012,03,28,01,46,0.00
2012,03,28,01,47,0.00
2012,03,28,01,48,0.00
2012,03,28,01,49,0.00
2012,03,28,01,50,0.00
2012,03,28,01,51,0.00
2012,03,28,01,52,0.00
2012,03,28,01,53,0.00
2012,03,28,01,54,0.00
2012,03,28,01,55,0.00
2012,03,28,01,56,0.00
2012,03,28,01,57,0.00
2012,03,28,01,58,0.00
2012,03,28,01,59,0.00
2012,03,28,02,00,0.00
2012,03,28,02,01,0.00
2012,03,28,02,02,0.00
2012,03,28,02,03,0.00
2012,03,28,02,04,0.00
2012,03,28,02,05,0.00
2012,03,28,02,06,0.00
2012,03,28,02,07,0.00
2012,03,28,02,08,0.00
2012,03,28,02,09,0.00
2012,03,28,02,10,0.00
2012,03,28,02,11,0.00
2012,03,28,02,12,0.00
2012,03,28,02,13,0.00
2012,03,28,02,14,0.00
2012,03,28,02,15,0.00
2012,03,28,02,16,0.00
2012,03,28,02,17,0.00
2012,03,28,02,18,0.00
2012,03,28,02,19,0.00
2012,03,28,02,20,0.00
2012,03,28,02,21,0.00
2012,03,28,02,22,0.00
2012,03,28,02,23,0.00
2012,03,28,02,24,0.00
2012,03,28,02,25,0.00
2012,03,28,02,26,0.00
2012,03,28,02,27,0.00
2012,03,28,02,28,0.00
2012,03,28,02,29,0.00
2012,03,28,02,30,0.00
2012,03,28,02,31,0.00
2012,03,28,02,32,0.00
2012,03,28,02,33,0.00
2012,03,28,02,34,0.00
2012,03,28,02,35,0.00
2012,03,28,02,36,0.00
2012,03,28,02,37,0.00
2012,03,28,02,38,0.00
2012,03,28,02,39,0.00
2012,03,28,02,40,0.00
2012,03,28,02,41,0.00
2012,03,28,02,42,0.00
2012,03,28,02,43,0.00
2012,03,28,02,44,0.00
2012,03,28,02,45,0.00
2012,03,28,02,46,0.00
2012,03,28,02,47,0.00
2012,03,28,02,48,0.00
2012,03,28,02,49,0.00
2012,03,28,02,50,0.00
2012,03,28,02,51,0.00
2012,03,28,02,52,0.00
2012,03,28,02,53,0.00
2012,03,28,02,54,0.00
2012,03,28,02,55,0.00
2012,03,28,02,56,0.00
2012,03,28,02,57,0.00
2012,03,28,02,58,0.00
2012,03,28,02,59,0.00
2012,03,28,03,00,0.00
2012,03,28,03,01,0.00
2012,03,28,03,02,0.00
2012,03,28,03,03,0.00
2012,03,28,03,04,0.00
2012,03,28,03,05,0.00
2012,03,28,03,06,0.00
2012,03,28,03,07,0.00
2012,03,28,03,08,0.00
2012,03,28,03,09,0.00
2012,03,28,03,10,0.00
2012,03,28,03,11,0.00
2012,03,28,03,12,0.00
2012,03,28,03,13,0.00
2012,03,28,03,14,0.00
2012,03,28,03,15,0.00
2012,03,28,03,16,0.00
2012,03,28,03,17,0.00
2012,03,28,03,18,0.00
2012,03,28,03,19,0.00
2012,03,28,03,20,0.00
2012,03,28,03,21,0.00
2012,03,28,03,22,0.00
2012,03,28,03,23,0.00
2012,03,28,03,24,0.00
2012,03,28,03,25,0.00
2012,03,28,03,26,0.00
2012,03,28,03,27,0.00
2012,03,28,03,28,0.00
2012,03,28,03,29,0.00
2012,03,28,03,30,0.00
2012,03,28,03,31,0.00
2012,03,28,03,32,0.00
2012,03,28,03,33,0.00
2012,03,28,03,34,0.00
2012,03,28,03,35,0.00
2012,03,28,03,36,0.00
2012,03,28,03,37,0.00
2012,03,28,03,38,0.00
2012,03,28,03,39,0.00
2012,03,28,03,40,0.00
2012,03,28,03,41,0.00
2012,03,28,03,42,0.00
2012,03,28,03,43,0.00
2012,03,28,03,44,0.00
2012,03,28,03,45,0.00
2012,03,28,03,46,0.00
2012,03,28,03,47,0.00
2012,03,28,03,48,0.00
2012,03,28,03,49,0.00
2012,03,28,03,50,0.00
2012,03,28,03,51,0.00
2012,03,28,03,52,0.00
2012,03,28,03,53,0.00
2012,03,28,03,54,0.00
2012,03,28,03,55,0.00
2012,03,28,03,56,0.00
2012,03,28,03,57,0.00
2012,03,28,03,58,0.00
2012,03,28,03,59,0.00
2012,03,28,04,00,0.00
2012,03,28,04,01,0.00
2012,03,28,04,02,0.00
2012,03,28,04,03,0.00
2012,03,28,04,04,0.00
2012,03,28,04,05,0.00
2012,03,28,04,06,0.00
2012,03,28,04,07,0.00
2012,03,28,04,08,0.00
2012,03,28,04,09,0.00
2012,03,28,04,10,0.00
2012,03,28,04,11,0.00
2012,03,28,04,12,0.00
2012,03,28,04,13,0.00
2012,03,28,04,14,0.00
2012,03,28,04,15,0.00
2012,03,28,04,16,0.00
2012,03,28,04,17,0.00
2012,03,28,04,18,0.00
2012,03,28,04,19,0.00
2012,03,28,04,20,0.00
2012,03,28,04,21,0.00
2012,03,28,04,22,0.00
2012,03,28,04,23,0.00
2012,03,28,04,24,0.00
2012,03,28,04,25,0.00
2012,03,28,04,26,0.00
2012,03,28,04,27,0.00
2012,03,28,04,28,0.00
2012,03,28,04,29,0.00
2012,03,28,04,30,0.00
2012,03,28,04,31,0.00
2012,03,28,04,32,0.00
2012,03,28,04,33,0.00
2012,03,28,04,34,0.00
2012,03,28,04,35,0.00
2012,03,28,04,36,0.00
2012,03,28,04,37,0.00
2012,03,28,04,38,0.00
2012,03,28,04,39,0.00
2012,03,28,04,40,0.00
2012,03,28,04,41,0.00
2012,03,28,04,42,0.00
2012,03,28,04,43,0.00
2012,03,28,04,44,0.00
2012,03,28,04,45,0.00
2012,03,28,04,46,0.00
2012,03,28,04,47,0.00
2012,03,28,04,48,0.00
2012,03,28,04,49,0.00
2012,03,28,04,50,0.00
2012,03,28,04,51,0.00
2012,03,28,04,52,0.00
2012,03,28,04,53,0.00
2012,03,28,04,54,0.00
2012,03,28,04,55,0.00
2012,03,28,04,56,0.00
2012,03,28,04,57,0.00
2012,03,28,04,58,0.00
2012,03,28,04,59,0.00
2012,03,28,05,00,0.00
2012,03,28,05,01,0.00
2012,03,28,05,02,0.00
2012,03,28,05,03,0.00
2012,03,28,05,04,0.00
2012,03,28,05,05,0.00
2012,03,28,05,06,0.00
2012,03,28,05,07,0.00
2012,03,28,05,08,0.00
2012,03,28,05,09,0.00
2012,03,28,05,10,0.00
2012,03,28,05,11,0.00
2012,03,28,05,12,0.00
2012,03,28,05,13,0.00
2012,03,28,05,14,0.00
2012,03,28,05,15,0.00
2012,03,28,05,16,0.00
2012,03,28,05,17,0.00
2012,03,28,05,18,0.00
2012,03,28,05,19,0.00
2012,03,28,05,20,0.00
2012,03,28,05,21,0.00
2012,03,28,05,22,0.00
2012,03,28,05,23,0.00
2012,03,28,05,24,0.00
2012,03,28,05,25,0.00
2012,03,28,05,26,0.00
2012,03,28,05,27,0.00
2012,03,28,05,28,0.00
2012,03,28,05,29,0.00
2012,03,28,05,30,0.00
2012,03,28,05,31,0.00
2012,03,28,05,32,0.00
2012,03,28,05,33,0.00
2012,03,28,05,34,0.00
2012,03,28,05,35,0.00
2012,03,28,05,36,0.00
2012,03,28,05,37,0.00
2012,03,28,05,38,0.00
2012,03,28,05,39,0.00
2012,03,28,05,40,0.00
2012,03,28,05,41,0.00
2012,03,28,05,42,0.00
2012,03,28,05,43,0.00
2012,03,28,05,44,0.00
2012,03,28,05,45,0.00
2012,03,28,05,46,0.00
2012,03,28,05,47,0.00
2012,03,28,05,48,0.00
2012,03,28,05,49,0.00
2012,03,28,05,50,0.00
2012,03,28,05,51,0.00
2012,03,28,05,52,0.00
2012,03,28,05,53,0.00
2012,03,28,05,54,0.00
2012,03,28,05,55,0.00
2012,03,28,05,56,0.00
2012,03,28,05,57,0.00
2012,03,28,05,58,0.00
2012,03,28,05,59,0.00
2012,03,28,06,00,0.00
2012,03,28,06,01,0.00
2012,03,28,06,02,0.00
2012,03,28,06,03,0.00
2012,03,28,06,04,0.00
2012,03,28,06,05,0.00
2012,03,28,06,06,0.00
2012,03,28,06,07,0.00
2012,03,28,06,08,0.00
2012,03,28,06,09,0.00
2012,03,28,06,10,0.00
2012,03,28,06,11,0.00
2012,03,28,06,12,0.00
2012,03,28,06,13,0.00
2012,03,28,06,14,0.00
2012,03,28,06,15,0.00
2012,03,28,06,16,0.00
2012,03,28,06,17,0.00
2012,03,28,06,18,0.00
2012,03,28,06,19,0.00
2012,03,28,06,20,0.00
2012,03,28,06,21,0.00
2012,03,28,06,22,0.00
2012,03,28,06,23,0.00
2012,03,28,06,24,0.00
2012,03,28,06,25,0.00
2012,03,28,06,26,0.00
2012,03,28,06,27,0.00
2012,03,28,06,28,0.00
2012,03,28,06,29,0.00
2012,03,28,06,30,0.00
2012,03,28,06,31,0.00
2012,03,28,06,32,0.00
2012,03,28,06,33,0.00
2012,03,28,06,34,0.00
2012,03,28,06,35,0.00
2012,03,28,06,36,0.00
2012,03,28,06,37,0.00
2012,03,28,06,38,0.00
2012,03,28,06,39,0.00
2012,03,28,06,40,0.00
2012,03,28,06,41,0.00
2012,03,28,06,42,0.00
2012,03,28,06,43,0.00
2012,03,28,06,44,0.00
2012,03,28,06,45,0.00
2012,03,28,06,46,0.00
2012,03,28,06,47,0.00
2012,03,28,06,48,0.00
2012,03,28,06,49,0.00
2012,03,28,06,50,0.00
2012,03,28,06,51,0.00
2012,03,28,06,52,0.00
2012,03,28,06,53,0.00
2012,03,28,06,54,0.00
2012,03,28,06,55,0.00
2012,03,28,06,56,0.00
2012,03,28,06,57,0.00
2012,03,28,06,58,0.00
2012,03,28,06,59,0.00
2012,03,28,07,00,0.00
2012,03,28,07,01,0.20
2012,03,28,07,02,5.00
2012,03,28,07,03,5.00
2012,03,28,07,04,5.30
2012,03,28,07,05,7.00
2012,03,28,07,06,7.50
2012,03,28,07,07,9.00
2012,03,28,07,08,9.60
2012,03,28,07,09,11.00
2012,03,28,07,10,11.00
2012,03,28,07,11,11.40
2012,03,28,07,12,12.00
2012,03,28,07,13,13.10
2012,03,28,07,14,14.00
2012,03,28,07,15,15.30
2012,03,28,07,16,17.40
2012,03,28,07,17,18.00
2012,03,28,07,18,18.70
2012,03,28,07,19,20.50
2012,03,28,07,20,22.60
2012,03,28,07,21,25.50
2012,03,28,07,22,27.80
2012,03,28,07,23,31.60
2012,03,28,07,24,33.20
2012,03,28,07,25,37.10
2012,03,28,07,26,39.10
2012,03,28,07,27,40.00
2012,03,28,07,28,40.00
2012,03,28,07,29,39.80
2012,03,28,07,30,38.40
2012,03,28,07,31,37.00
2012,03,28,07,32,37.00
2012,03,28,07,33,37.00
2012,03,28,07,34,37.00
2012,03,28,07,35,38.00
2012,03,28,07,36,39.00
2012,03,28,07,37,39.50
2012,03,28,07,38,42.40
2012,03,28,07,39,45.30
2012,03,28,07,40,48.00
2012,03,28,07,41,51.80
2012,03,28,07,42,53.80
2012,03,28,07,43,55.60
2012,03,28,07,44,56.00
2012,03,28,07,45,53.30
2012,03,28,07,46,49.20
2012,03,28,07,47,47.00
2012,03,28,07,48,46.00
2012,03,28,07,49,45.80
2012,03,28,07,50,44.00
2012,03,28,07,51,44.00
2012,03,28,07,52,44.00
2012,03,28,07,53,44.50
2012,03,28,07,54,46.30
2012,03,28,07,55,48.40
2012,03,28,07,56,52.20
2012,03,28,07,57,55.80
2012,03,28,07,58,58.90
2012,03,28,07,59,61.00
2012,03,28,08,00,62.50
2012,03,28,08,01,64.20
2012,03,28,08,02,65.00
2012,03,28,08,03,63.60
2012,03,28,08,04,60.80
2012,03,28,08,05,57.00
2012,03,28,08,06,53.60
2012,03,28,08,07,49.60
2012,03,28,08,08,49.00
2012,03,28,08,09,49.00
2012,03,28,08,10,49.00
2012,03,28,08,11,47.00
2012,03,28,08,12,45.80
2012,03,28,08,13,43.40
2012,03,28,08,14,39.00
2012,03,28,08,15,33.90
2012,03,28,08,16,29.00
2012,03,28,08,17,25.10
2012,03,28,08,18,21.50
2012,03,28,08,19,18.60
2012,03,28,08,20,18.00
2012,03,28,08,21,16.00
2012,03,28,08,22,15.10
2012,03,28,08,23,17.10
2012,03,28,08,24,18.60
2012,03,28,08,25,21.60
2012,03,28,08,26,24.40
2012,03,28,08,27,25.00
2012,03,28,08,28,25.80
2012,03,28,08,29,26.00
2012,03,28,08,30,27.70
2012,03,28,08,31,31.60
2012,03,28,08,32,36.50
2012,03,28,08,33,44.00
2012,03,28,08,34,51.40
2012,03,28,08,35,58.70
2012,03,28,08,36,66.30
2012,03,28,08,37,75.80
2012,03,28,08,38,84.80
2012,03,28,08,39,90.30
2012,03,28,08,40,92.90
2012,03,28,08,41,100.50
2012,03,28,08,42,113.40
2012,03,28,08,43,129.30
2012,03,28,08,44,146.50
2012,03,28,08,45,168.10
2012,03,28,08,46,192.80
2012,03,28,08,47,220.80
2012,03,28,08,48,233.30
2012,03,28,08,49,232.70
2012,03,28,08,50,208.90
2012,03,28,08,51,190.80
2012,03,28,08,52,184.00
2012,03,28,08,53,187.20
2012,03,28,08,54,273.50
2012,03,28,08,55,281.10
2012,03,28,08,56,302.00
2012,03,28,08,57,302.00
2012,03,28,08,58,279.40
2012,03,28,08,59,74.70
2012,03,28,09,00,67.40
2012,03,28,09,01,69.00
2012,03,28,09,02,115.50
2012,03,28,09,03,249.60
2012,03,28,09,04,245.80
2012,03,28,09,05,267.60
2012,03,28,09,06,278.80
2012,03,28,09,07,289.00
2012,03,28,09,08,297.20
2012,03,28,09,09,305.60
2012,03,28,09,10,308.10
2012,03,28,09,11,307.30
2012,03,28,09,12,306.60
2012,03,28,09,13,302.50
2012,03,28,09,14,307.00
2012,03,28,09,15,312.20
2012,03,28,09,16,314.70
2012,03,28,09,17,317.70
2012,03,28,09,18,322.80
2012,03,28,09,19,325.00
2012,03,28,09,20,327.10
2012,03,28,09,21,330.10
2012,03,28,09,22,332.30
2012,03,28,09,23,334.40
2012,03,28,09,24,336.80
2012,03,28,09,25,340.10
2012,03,28,09,26,343.60
2012,03,28,09,27,346.00
2012,03,28,09,28,349.60
2012,03,28,09,29,352.40
2012,03,28,09,30,354.80
2012,03,28,09,31,358.00
2012,03,28,09,32,360.60
2012,03,28,09,33,362.00
2012,03,28,09,34,362.00
2012,03,28,09,35,362.00
2012,03,28,09,36,369.70
2012,03,28,09,37,375.20
2012,03,28,09,38,380.00
2012,03,28,09,39,382.70
2012,03,28,09,40,387.20
2012,03,28,09,41,389.90
2012,03,28,09,42,394.00
2012,03,28,09,43,397.40
2012,03,28,09,44,404.60
2012,03,28,09,45,411.50
2012,03,28,09,46,422.40
2012,03,28,09,47,434.70
2012,03,28,09,48,445.00
2012,03,28,09,49,445.00
2012,03,28,09,50,448.80
2012,03,28,09,51,465.80
2012,03,28,09,52,488.30
2012,03,28,09,53,502.60
2012,03,28,09,54,531.00
2012,03,28,09,55,530.90
2012,03,28,09,56,515.00
2012,03,28,09,57,515.00
2012,03,28,09,58,518.40
2012,03,28,09,59,520.00
2012,03,28,10,00,604.80
2012,03,28,10,01,624.20
2012,03,28,10,02,622.00
2012,03,28,10,03,468.10
2012,03,28,10,04,450.00
2012,03,28,10,05,450.00
2012,03,28,10,06,511.70
2012,03,28,10,07,548.30
2012,03,28,10,08,590.60
2012,03,28,10,09,654.00
2012,03,28,10,10,557.80
2012,03,28,10,11,267.50
2012,03,28,10,12,280.80
2012,03,28,10,13,292.20
2012,03,28,10,14,226.70
2012,03,28,10,15,222.60
2012,03,28,10,16,232.60
2012,03,28,10,17,237.00
2012,03,28,10,18,237.00
2012,03,28,10,19,237.00
2012,03,28,10,20,283.70
2012,03,28,10,21,311.00
2012,03,28,10,22,311.00
2012,03,28,10,23,572.30
2012,03,28,10,24,607.60
2012,03,28,10,25,599.00
2012,03,28,10,26,599.00
2012,03,28,10,27,599.00
2012,03,28,10,28,300.00
2012,03,28,10,29,340.00
2012,03,28,10,30,313.00
2012,03,28,10,31,313.00
2012,03,28,10,32,392.80
2012,03,28,10,33,714.50
2012,03,28,10,34,734.50
2012,03,28,10,35,777.10
2012,03,28,10,36,803.00
2012,03,28,10,37,803.00
2012,03,28,10,38,803.00
2012,03,28,10,39,803.00
2012,03,28,10,40,595.00
2012,03,28,10,41,387.00
2012,03,28,10,42,587.40
2012,03,28,10,43,671.60
2012,03,28,10,44,630.30
2012,03,28,10,45,592.60
2012,03,28,10,46,545.00
2012,03,28,10,47,534.00
2012,03,28,10,48,534.00
2012,03,28,10,49,330.90
2012,03,28,10,50,279.70
2012,03,28,10,51,259.60
2012,03,28,10,52,271.00
2012,03,28,10,53,296.40
2012,03,28,10,54,538.00
2012,03,28,10,55,496.40
2012,03,28,10,56,321.20
2012,03,28,10,57,286.30
2012,03,28,10,58,282.30
2012,03,28,10,59,291.30
2012,03,28,11,00,300.40
2012,03,28,11,01,286.50
2012,03,28,11,02,277.60
2012,03,28,11,03,277.00
2012,03,28,11,04,281.90
2012,03,28,11,05,285.00
2012,03,28,11,06,294.10
2012,03,28,11,07,299.00
2012,03,28,11,08,294.10
2012,03,28,11,09,288.20
2012,03,28,11,10,287.80
2012,03,28,11,11,288.00
2012,03,28,11,12,291.40
2012,03,28,11,13,288.20
2012,03,28,11,14,274.00
2012,03,28,11,15,257.00
2012,03,28,11,16,258.20
2012,03,28,11,17,286.90
2012,03,28,11,18,333.70
2012,03,28,11,19,336.60
2012,03,28,11,20,374.80
2012,03,28,11,21,434.00
2012,03,28,11,22,434.00
2012,03,28,11,23,506.40
2012,03,28,11,24,615.00
2012,03,28,11,25,653.40
2012,03,28,11,26,696.00
2012,03,28,11,27,529.90
2012,03,28,11,28,394.00
2012,03,28,11,29,394.00
2012,03,28,11,30,394.00
2012,03,28,11,31,394.00
2012,03,28,11,32,394.00
2012,03,28,11,33,394.00
2012,03,28,11,34,394.00
2012,03,28,11,35,363.60
2012,03,28,11,36,355.50
2012,03,28,11,37,366.00
2012,03,28,11,38,386.80
2012,03,28,11,39,361.20
2012,03,28,11,40,332.20
2012,03,28,11,41,307.20
2012,03,28,11,42,291.60
2012,03,28,11,43,295.40
2012,03,28,11,44,318.20
2012,03,28,11,45,359.40
2012,03,28,11,46,423.70
2012,03,28,11,47,435.90
2012,03,28,11,48,400.00
2012,03,28,11,49,408.00
2012,03,28,11,50,415.00
2012,03,28,11,51,415.00
2012,03,28,11,52,388.40
2012,03,28,11,53,343.20
2012,03,28,11,54,322.70
2012,03,28,11,55,321.50
2012,03,28,11,56,328.40
2012,03,28,11,57,354.60
2012,03,28,11,58,424.70
2012,03,28,11,59,432.00
2012,03,28,12,00,556.50
2012,03,28,12,01,563.00
2012,03,28,12,02,582.50
2012,03,28,12,03,764.50
2012,03,28,12,04,745.00
2012,03,28,12,05,745.00
2012,03,28,12,06,745.00
2012,03,28,12,07,606.40
2012,03,28,12,08,294.80
2012,03,28,12,09,262.80
2012,03,28,12,10,239.30
2012,03,28,12,11,223.70
2012,03,28,12,12,214.50
2012,03,28,12,13,208.10
2012,03,28,12,14,195.90
2012,03,28,12,15,182.80
2012,03,28,12,16,173.80
2012,03,28,12,17,172.00
2012,03,28,12,18,175.20
2012,03,28,12,19,178.40
2012,03,28,12,20,184.10
2012,03,28,12,21,192.20
2012,03,28,12,22,201.10
2012,03,28,12,23,210.60
2012,03,28,12,24,213.00
2012,03,28,12,25,210.60
2012,03,28,12,26,186.90
2012,03,28,12,27,166.20
2012,03,28,12,28,155.00
2012,03,28,12,29,158.50
2012,03,28,12,30,177.40
2012,03,28,12,31,211.80
2012,03,28,12,32,265.70
2012,03,28,12,33,343.80
2012,03,28,12,34,417.50
2012,03,28,12,35,496.50
2012,03,28,12,36,557.70
2012,03,28,12,37,552.40
2012,03,28,12,38,541.00
2012,03,28,12,39,541.00
2012,03,28,12,40,547.60
2012,03,28,12,41,550.00
2012,03,28,12,42,622.00
2012,03,28,12,43,640.00
2012,03,28,12,44,451.30
2012,03,28,12,45,376.30
2012,03,28,12,46,362.60
2012,03,28,12,47,316.80
2012,03,28,12,48,291.90
2012,03,28,12,49,269.80
2012,03,28,12,50,254.80
2012,03,28,12,51,241.20
2012,03,28,12,52,233.50
2012,03,28,12,53,231.20
2012,03,28,12,54,225.70
2012,03,28,12,55,212.40
2012,03,28,12,56,196.60
2012,03,28,12,57,184.30
2012,03,28,12,58,172.50
2012,03,28,12,59,160.90
2012,03,28,13,00,151.90
2012,03,28,13,01,146.00
2012,03,28,13,02,141.90
2012,03,28,13,03,138.10
2012,03,28,13,04,133.20
2012,03,28,13,05,128.00
2012,03,28,13,06,125.30
2012,03,28,13,07,127.60
2012,03,28,13,08,146.00
2012,03,28,13,09,179.40
2012,03,28,13,10,221.30
2012,03,28,13,11,247.20
2012,03,28,13,12,258.20
2012,03,28,13,13,260.00
2012,03,28,13,14,265.80
2012,03,28,13,15,285.40
2012,03,28,13,16,292.60
2012,03,28,13,17,298.90
2012,03,28,13,18,308.00
2012,03,28,13,19,390.00
2012,03,28,13,20,523.30
2012,03,28,13,21,560.50
2012,03,28,13,22,549.20
2012,03,28,13,23,517.00
2012,03,28,13,24,472.70
2012,03,28,13,25,470.10
2012,03,28,13,26,427.40
2012,03,28,13,27,385.80
2012,03,28,13,28,367.40
2012,03,28,13,29,397.10
2012,03,28,13,30,446.70
2012,03,28,13,31,417.10
2012,03,28,13,32,336.00
2012,03,28,13,33,369.10
2012,03,28,13,34,424.30
2012,03,28,13,35,423.50
2012,03,28,13,36,402.70
2012,03,28,13,37,396.80
2012,03,28,13,38,408.50
2012,03,28,13,39,449.30
2012,03,28,13,40,464.40
2012,03,28,13,41,484.30
2012,03,28,13,42,528.40
2012,03,28,13,43,561.70
2012,03,28,13,44,593.00
2012,03,28,13,45,651.80
2012,03,28,13,46,671.20
2012,03,28,13,47,680.00
2012,03,28,13,48,680.00
2012,03,28,13,49,680.00
2012,03,28,13,50,680.00
2012,03,28,13,51,680.00
2012,03,28,13,52,680.00
2012,03,28,13,53,680.00
2012,03,28,13,54,815.00
2012,03,28,13,55,909.80
2012,03,28,13,56,914.00
2012,03,28,13,57,914.00
2012,03,28,13,58,922.60
2012,03,28,13,59,984.60
2012,03,28,14,00,917.30
2012,03,28,14,01,896.50
2012,03,28,14,02,898.00
2012,03,28,14,03,898.00
2012,03,28,14,04,898.00
2012,03,28,14,05,637.00
2012,03,28,14,06,318.00
2012,03,28,14,07,318.00
2012,03,28,14,08,290.00
2012,03,28,14,09,255.90
2012,03,28,14,10,240.80
2012,03,28,14,11,263.40
2012,03,28,14,12,266.20
2012,03,28,14,13,234.20
2012,03,28,14,14,205.30
2012,03,28,14,15,191.90
2012,03,28,14,16,181.90
2012,03,28,14,17,187.30
2012,03,28,14,18,214.60
2012,03,28,14,19,256.60
2012,03,28,14,20,329.70
2012,03,28,14,21,399.00
2012,03,28,14,22,438.80
2012,03,28,14,23,664.00
2012,03,28,14,24,664.00
2012,03,28,14,25,664.00
2012,03,28,14,26,708.40
2012,03,28,14,27,847.00
2012,03,28,14,28,901.60
2012,03,28,14,29,870.80
2012,03,28,14,30,854.00
2012,03,28,14,31,854.00
2012,03,28,14,32,854.00
2012,03,28,14,33,431.50
2012,03,28,14,34,203.20
2012,03,28,14,35,236.10
2012,03,28,14,36,243.80
2012,03,28,14,37,243.00
2012,03,28,14,38,243.00
2012,03,28,14,39,243.00
2012,03,28,14,40,424.80
2012,03,28,14,41,445.00
2012,03,28,14,42,298.80
2012,03,28,14,43,256.10
2012,03,28,14,44,241.30
2012,03,28,14,45,276.00
2012,03,28,14,46,347.00
2012,03,28,14,47,296.40
2012,03,28,14,48,221.40
2012,03,28,14,49,171.20
2012,03,28,14,50,124.30
2012,03,28,14,51,82.40
2012,03,28,14,52,55.80
2012,03,28,14,53,44.50
2012,03,28,14,54,40.30
2012,03,28,14,55,37.90
2012,03,28,14,56,35.80
2012,03,28,14,57,39.50
2012,03,28,14,58,54.00
2012,03,28,14,59,76.20
2012,03,28,15,00,105.80
2012,03,28,15,01,143.60
2012,03,28,15,02,168.90
2012,03,28,15,03,157.50
2012,03,28,15,04,131.30
2012,03,28,15,05,98.60
2012,03,28,15,06,69.90
2012,03,28,15,07,50.10
2012,03,28,15,08,41.70
2012,03,28,15,09,40.00
2012,03,28,15,10,41.50
2012,03,28,15,11,46.90
2012,03,28,15,12,49.00
2012,03,28,15,13,48.30
2012,03,28,15,14,47.80
2012,03,28,15,15,54.80
2012,03,28,15,16,74.00
2012,03,28,15,17,86.00
2012,03,28,15,18,141.00
2012,03,28,15,19,224.20
2012,03,28,15,20,295.20
2012,03,28,15,21,316.60
2012,03,28,15,22,287.50
2012,03,28,15,23,267.50
2012,03,28,15,24,264.20
2012,03,28,15,25,274.20
2012,03,28,15,26,355.80
2012,03,28,15,27,345.00
2012,03,28,15,28,404.00
2012,03,28,15,29,386.30
2012,03,28,15,30,221.90
2012,03,28,15,31,189.50
2012,03,28,15,32,169.20
2012,03,28,15,33,162.80
2012,03,28,15,34,169.20
2012,03,28,15,35,183.90
2012,03,28,15,36,195.60
2012,03,28,15,37,198.00
2012,03,28,15,38,188.70
2012,03,28,15,39,176.00
2012,03,28,15,40,168.90
2012,03,28,15,41,168.10
2012,03,28,15,42,174.90
2012,03,28,15,43,183.50
2012,03,28,15,44,187.40
2012,03,28,15,45,184.30
2012,03,28,15,46,176.20
2012,03,28,15,47,171.60
2012,03,28,15,48,176.90
2012,03,28,15,49,192.20
2012,03,28,15,50,210.10
2012,03,28,15,51,223.20
2012,03,28,15,52,226.60
2012,03,28,15,53,222.70
2012,03,28,15,54,219.70
2012,03,28,15,55,219.80
2012,03,28,15,56,231.80
2012,03,28,15,57,252.30
2012,03,28,15,58,278.10
2012,03,28,15,59,310.80
2012,03,28,16,00,329.80
2012,03,28,16,01,330.00
2012,03,28,16,02,319.00
2012,03,28,16,03,302.50
2012,03,28,16,04,282.00
2012,03,28,16,05,266.40
2012,03,28,16,06,241.20
2012,03,28,16,07,221.20
2012,03,28,16,08,211.20
2012,03,28,16,09,234.30
2012,03,28,16,10,250.60
2012,03,28,16,11,264.90
2012,03,28,16,12,268.90
2012,03,28,16,13,246.00
2012,03,28,16,14,240.40
2012,03,28,16,15,304.70
2012,03,28,16,16,314.10
2012,03,28,16,17,283.80
2012,03,28,16,18,328.60
2012,03,28,16,19,407.80
2012,03,28,16,20,423.40
2012,03,28,16,21,402.60
2012,03,28,16,22,392.40
2012,03,28,16,23,316.60
2012,03,28,16,24,244.50
2012,03,28,16,25,220.60
2012,03,28,16,26,204.20
2012,03,28,16,27,198.20
2012,03,28,16,28,205.00
2012,03,28,16,29,199.90
2012,03,28,16,30,186.60
2012,03,28,16,31,167.20
2012,03,28,16,32,142.30
2012,03,28,16,33,129.80
2012,03,28,16,34,128.00
2012,03,28,16,35,123.50
2012,03,28,16,36,114.40
2012,03,28,16,37,109.10
2012,03,28,16,38,111.50
2012,03,28,16,39,121.70
2012,03,28,16,40,128.30
2012,03,28,16,41,130.80
2012,03,28,16,42,137.00
2012,03,28,16,43,146.00
2012,03,28,16,44,141.10
2012,03,28,16,45,128.70
2012,03,28,16,46,122.20
2012,03,28,16,47,121.00
2012,03,28,16,48,125.50
2012,03,28,16,49,132.20
2012,03,28,16,50,128.60
2012,03,28,16,51,128.00
2012,03,28,16,52,128.70
2012,03,28,16,53,135.70
2012,03,28,16,54,154.80
2012,03,28,16,55,176.80
2012,03,28,16,56,184.40
2012,03,28,16,57,181.60
2012,03,28,16,58,196.30
2012,03,28,16,59,197.00
2012,03,28,17,00,232.00
2012,03,28,17,01,230.10
2012,03,28,17,02,210.80
2012,03,28,17,03,190.40
2012,03,28,17,04,180.00
2012,03,28,17,05,175.00
2012,03,28,17,06,172.00
2012,03,28,17,07,173.80
2012,03,28,17,08,175.90
2012,03,28,17,09,171.60
2012,03,28,17,10,169.20
2012,03,28,17,11,165.20
2012,03,28,17,12,162.50
2012,03,28,17,13,159.80
2012,03,28,17,14,159.30
2012,03,28,17,15,161.40
2012,03,28,17,16,162.00